Notices

What's New in latest Release from April 7th, 2021:

- Updated Glossary, including Speed of Maximum Gust, and Total Hourly Precipitation

- Updated national and regional climate services offices contacts and prices information

- Addition of station inventory lists for 1981-2010, 1971-2000, and 1961-1990 Normals.

If you haven't already, please take our survey and provide feedback about our website: https://eccc.sondage-survey.ca/f/LanguageSelection.aspx?s=442ca660-fcf1-47c0-95a9-59707d6fd709

Hourly Data Report for October 28, 2004

SHERBROOKE A
QUEBEC

45°26'00.000" N
71°41'00.000" W
241.40 m
7028124
71610
YSC

Download Data

Hourly Data (October 2004)
Hourly Data Report for October 28, 2004
TIME
LST
Temp Definition
°C
Dew Point Definition
°C
Rel Hum Definition
%
Precip. Amount Definition
mm

Wind Dir Definition
10's deg

Wind Spd Definition
km/h
Visibility Definition
km
Stn Press Definition
kPa
Hmdx Definition


Wind Chill Definition


Weather Definition


00:00 -4.0 -5.5 89   11 4 15.0 99.80   -6  
01:00 -5.5 -6.7 91     0 15.0 99.83      
02:00 -5.2 -6.9 88     0 15.0 99.84      
03:00 -6.0 -7.9 86   14 4 15.0 99.87   -8  
04:00 -6.3 -8.2 86     0 15.0 99.90      
05:00 -6.6 -8.5 86     0 15.0 99.92      
06:00 -6.9 -8.9 86   12 4 15.0 99.93   -9  
07:00 -6.1 -7.5 90     0 3.2 100.01     Fog
08:00 -3.6 -4.6 93     0 16.1 100.05     Mainly Clear
09:00 -0.7 -2.4 88     0 19.3 100.04     Mainly Clear
10:00 1.6 -1.4 80   27 4 24.1 99.99     Mainly Clear
11:00 4.1 -1.8 65   31 4 24.1 99.90     Mainly Clear
12:00 5.8 -2.8 54   6 4 24.1 99.81     Mainly Clear
13:00 6.6 -2.9 51   19 4 24.1 99.70     Mostly Cloudy
14:00 7.8 -3.1 46     0 24.1 99.62     Mostly Cloudy
15:00 7.1 -3.9 45   27 6 24.1 99.57     Mostly Cloudy
16:00 5.8 -3.4 52   28 6 24.1 99.57     Mostly Cloudy
17:00 1.3 -4.1 67     0 15.0 99.56      
18:00 0.1 -4.8 70     0 15.0 99.54      
19:00 -1.3 -5.1 75     0 15.0 99.53      
20:00 -3.3 -5.9 82   12 6 15.0 99.52   -6  
21:00 -4.0 -5.9 87   11 4 15.0 99.47   -6  
22:00 -3.9 -6.0 85   10 4 15.0 99.44   -6  
23:00 -4.2 -6.2 86   10 4 15.0 99.38   -6  

Notes on Data Quality.

Legend

  • E = Estimated
  • M = Missing
  • NA = Not Available*
  • [empty] = Indicates an unobserved value
Date modified: